R.E. Bob Woodruff Reservoir Weather Center

Moon Phase Calendar



R.E. Bob Woodruff Reservoir Water Level
Online Cameras

 


      

Current Conditions in Autauga
6/20/2021 2:17:07 AM

72°F
Feels Like 73
Rain
Humidity
100%
Pressure
29.77"
Wind
13.8 mph (WSW)
Dew Point
72°F
UV Index
0/10 (Low)
Visibility
4 mi

Hourly Forecast

Date & Time Sun, Jun 20
2:00 AM
Sun, Jun 20
3:00 AM
Sun, Jun 20
4:00 AM
Sun, Jun 20
5:00 AM
Sun, Jun 20
6:00 AM
Sun, Jun 20
7:00 AM
Sun, Jun 20
8:00 AM
Sun, Jun 20
9:00 AM
Sun, Jun 20
10:00 AM
Sun, Jun 20
11:00 AM
Sun, Jun 20
12:00 PM
Sun, Jun 20
1:00 PM
Sun, Jun 20
2:00 PM
Sun, Jun 20
3:00 PM
Sun, Jun 20
4:00 PM
Sun, Jun 20
5:00 PM
Sun, Jun 20
6:00 PM
Sun, Jun 20
7:00 PM
Sun, Jun 20
8:00 PM
Sun, Jun 20
9:00 PM
Sun, Jun 20
10:00 PM
Sun, Jun 20
11:00 PM
Mon, Jun 21
12:00 AM
Mon, Jun 21
1:00 AM
Mon, Jun 21
2:00 AM
Mon, Jun 21
3:00 AM
Mon, Jun 21
4:00 AM
Mon, Jun 21
5:00 AM
Mon, Jun 21
6:00 AM
Mon, Jun 21
7:00 AM
Mon, Jun 21
8:00 AM
Mon, Jun 21
9:00 AM
Mon, Jun 21
10:00 AM
Mon, Jun 21
11:00 AM
Mon, Jun 21
12:00 PM
Mon, Jun 21
1:00 PM
Mon, Jun 21
2:00 PM
Mon, Jun 21
3:00 PM
Mon, Jun 21
4:00 PM
Mon, Jun 21
5:00 PM
Mon, Jun 21
6:00 PM
Mon, Jun 21
7:00 PM
Mon, Jun 21
8:00 PM
Mon, Jun 21
9:00 PM
Mon, Jun 21
10:00 PM
Mon, Jun 21
11:00 PM
Tue, Jun 22
12:00 AM
Tue, Jun 22
1:00 AM
Condition
Rain

Rain

Clouds

Rain

Rain

Rain

Clouds

Clouds

Clouds

Clouds

Clouds

Clouds

Clouds

Clouds

Clouds

Clouds

Clouds

Clouds

Clear

Clear

Clear

Clear

Clouds

Clouds

Clouds

Clouds

Clouds

Clouds

Rain

Rain

Rain

Rain

Rain

Clouds

Clouds

Clouds

Rain

Rain

Rain

Rain

Rain

Rain

Rain

Rain

Rain

Rain

Rain

Rain
Temperature 72°F72°F72°F71°F71°F71°F72°F75°F79°F82°F85°F86°F86°F88°F89°F88°F87°F83°F79°F77°F76°F75°F74°F73°F72°F72°F71°F72°F73°F73°F74°F76°F75°F73°F74°F76°F79°F81°F77°F71°F70°F69°F69°F69°F69°F70°F71°F71°F
Feels Like 73°F73°F73°F73°F73°F72°F74°F77°F79°F87°F89°F91°F93°F94°F96°F95°F94°F89°F80°F78°F77°F77°F75°F74°F74°F73°F73°F73°F74°F74°F75°F77°F77°F74°F75°F78°F79°F85°F78°F73°F71°F71°F70°F70°F70°F71°F72°F72°F
Cloudiness 90%92%94%96%98%100%100%100%100%97%95%95%98%76%74%81%71%62%10%9%9%10%28%38%100%100%100%100%100%100%100%100%100%100%100%100%100%100%100%100%100%100%100%100%100%100%100%100%
Visibility 6 mi3 mi4 mi6 mi6 mi6 mi6 mi6 mi6 mi6 mi6 mi6 mi6 mi6 mi6 mi6 mi6 mi6 mi6 mi6 mi6 mi6 mi6 mi6 mi6 mi6 mi6 mi6 mi6 mi6 mi6 mi6 mi6 mi6 mi6 mi6 mi6 mi6 mi6 mi6 mi5 mi6 mi6 mi6 mi6 mi6 mi6 mi6 mi
Precipitation 78%85%74%98%99%99%7%3%0%0%0%0%0%0%0%0%0%0%8%0%0%0%0%0%0%0%9%20%41%72%86%81%76%69%63%59%34%45%76%79%83%83%75%75%75%75%75%78%
Humidity 100%99%98%98%97%96%94%86%75%67%62%60%62%57%58%60%65%74%81%85%88%90%91%93%95%97%97%97%95%97%96%91%91%94%92%83%78%73%81%94%97%97%98%98%98%97%97%97%
Dew Point 72°F71°F71°F71°F70°F70°F70°F71°F70°F70°F70°F70°F71°F71°F72°F72°F73°F74°F72°F72°F72°F71°F71°F71°F70°F70°F70°F70°F71°F71°F72°F73°F72°F71°F71°F71°F71°F71°F70°F69°F69°F68°F68°F68°F68°F69°F69°F70°F
Pressure 29.77"29.77"29.77"29.8"29.83"29.85"29.88"29.91"29.91"29.91"29.88"29.88"29.88"29.85"29.85"29.85"29.85"29.85"29.88"29.88"29.88"29.91"29.91"29.91"29.91"29.91"29.91"29.91"29.94"29.97"29.97"29.97"30"30"30"30"29.97"29.94"29.97"29.97"29.97"29.97"29.97"29.94"29.94"29.94"29.91"29.91"
Wind Speed 14.5 mph16.3 mph15.3 mph14.7 mph15.3 mph13.7 mph12 mph12.2 mph12.5 mph11.6 mph11.7 mph11.3 mph11.4 mph11.8 mph10.6 mph8.6 mph5.6 mph7.1 mph9.4 mph8.6 mph8.8 mph8.4 mph7.8 mph6.8 mph7.1 mph5.7 mph5.1 mph5.7 mph6.3 mph7.3 mph7.2 mph8 mph9.4 mph8.5 mph8.8 mph9.6 mph8.8 mph11.5 mph14.3 mph11.3 mph7.7 mph6 mph6 mph6.5 mph5.5 mph6.4 mph8.9 mph8 mph
Wind
Direction
224°
SW
239°
WSW
245°
WSW
251°
WSW
270°
W
277°
W
274°
W
282°
WNW
282°
WNW
287°
WNW
284°
WNW
278°
W
272°
W
278°
W
283°
WNW
291°
WNW
295°
WNW
220°
SW
217°
SW
221°
SW
217°
SW
218°
SW
219°
SW
221°
SW
222°
SW
226°
SW
229°
SW
229°
SW
235°
SW
239°
WSW
249°
WSW
255°
WSW
229°
SW
222°
SW
231°
SW
246°
WSW
258°
WSW
238°
WSW
226°
SW
219°
SW
216°
SW
197°
SSW
172°
S
164°
SSE
160°
SSE
181°
S
212°
SSW
243°
WSW

Daily Forecast

Date High Low Precip. Humidity
Today
Jun 20

Rain
89 °F
71 °F
99%
62%
Monday
Jun 21

Rain
81 °F
69 °F
86%
92%
Tuesday
Jun 22

Rain
81 °F
71 °F
93%
79%
Wednesday
Jun 23

Clouds
86 °F
69 °F
20%
58%
Thursday
Jun 24

Rain
87 °F
71 °F
99%
63%
Friday
Jun 25

Rain
88 °F
71 °F
91%
59%
Saturday
Jun 26

Rain
91 °F
72 °F
45%
51%
Sunday
Jun 27

Rain
89 °F
72 °F
93%
50%
Monday
Jun 28

Rain
90 °F
71 °F
100%
48%
Tuesday
Jun 29

Rain
73 °F
70 °F
84%
92%
Wednesday
Jun 30

Rain
82 °F
71 °F
88%
87%
Thursday
Jul 1

Rain
92 °F
70 °F
98%
50%
Friday
Jul 2

Rain
92 °F
71 °F
78%
55%
Saturday
Jul 3

Clouds
91 °F
74 °F
0%
54%
Sunday
Jul 4

Clouds
95 °F
75 °F
7%
48%
Monday
Jul 5

Rain
95 °F
77 °F
70%
44%

Temperature 8-14 Day Outlook



Precipitation 8-14 Day Outlook




Quick Links
R.E. Bob Woodruff Reservoir News
R.E. Bob Woodruff Reservoir Photos
R.E. Bob Woodruff Reservoir Videos




About Us
Contact Us
Site Map
Search Site
Advertise With Us
   
Woodruff.USLakes.info
THE R.E. BOB WOODRUFF RESERVOIR WEBSITE

Copyright 2021, Lakes Online
Privacy    |    Legal